Temperature
6 6 5 5 4 4 3 3 3 2 3 3 3 3 3 3 3 3 3 3 2 2 2 2 2 1 1 1 1 1 1 1 1 1 2 2 2 2
6 5 5 4 4 3 3 3 2 2 2 2 3 3 3 3 2 2 2 2 2 2 2 2 1 1 1 1 1 1 1 1 1 1 1 1 2 2
5 5 4 4 4 3 3 3 2 2 2 2 2 2 2 2 3 2 2 2 2 2 2 1 1 1 1 1 1 1 1 1 1 1 1 1 1 2
4 4 4 4 3 3 3 3 2 2 2 2 2 2 2 2 2 2 2 2 2 2 1 1 1 1 0 0 0 0 0 0 0 0 0 1 1 1
4 4 3 3 3 3 2 2 2 2 2 2 2 2 2 2 2 2 2 2 1 1 1 0 0 0 0 0 0 0 -0 -0 -0 0 0 0 0 1
3 3 3 3 3 2 2 2 2 2 2 1 1 1 1 1 1 1 1 1 1 1 1 0 0 0 0 -0 -0 -0 -1 -1 -0 -0 -0 -0 -0 0
3 3 3 2 2 2 2 2 2 2 1 1 1 1 1 1 0 -0 -0 0 1 1 1 1 0 0 -0 -0 -0 -1 -1 -1 -1 -1 -1 -0 -0 -0
2 2 2 2 2 2 2 2 1 1 1 1 0 0 0 -0 -1 -1 -1 -1 -1 -0 -0 0 0 -0 -0 -0 -1 -1 -1 -1 -1 -1 -1 -1 -0 -0
2 2 2 2 1 1 1 1 1 1 1 0 0 -0 -0 -1 -1 -1 -1 -2 -1 -1 -1 -0 0 -0 -1 -1 -1 -1 -1 -1 -1 -1 -1 -1 -0 -0
2 1 1 1 1 1 1 1 1 1 1 0 -0 -0 -1 -1 -2 -2 -2 -2 -1 -1 -1 -1 -1 -1 -1 -1 -1 -1 -1 -1 -1 -1 -1 -1 -1 -0
1 1 1 1 1 1 1 1 1 1 0 0 -0 -1 -1 -1 -1 -2 -2 -2 -2 -1 -2 -2 -2 -2 -1 -1 -1 -1 -1 -1 -1 -1 -1 -1 -1 -1
1 1 0 0 0 0 0 0 0 0 0 0 -0 -0 -1 -1 -1 -2 -2 -2 -3 -3 -2 -2 -2 -3 -2 -1 -1 -1 -2 -1 -1 -1 -1 -1 -1 -1
-0 0 0 -0 -0 -0 -0 -0 -0 -0 -0 -0 -1 -1 -1 -1 -1 -1 -2 -2 -3 -3 -3 -3 -3 -3 -3 -3 -2 -2 -2 -2 -2 -1 -1 -1 -1 -1
-1 -1 -0 -0 -1 -1 -1 -1 -1 -1 -1 -1 -1 -1 -1 -1 -1 -1 -2 -2 -2 -3 -3 -3 -3 -3 -3 -3 -3 -2 -2 -2 -2 -2 -2 -1 -1 -1
-1 -1 -1 -1 -1 -1 -1 -1 -1 -1 -1 -1 -1 -1 -2 -2 -2 -2 -2 -2 -2 -2 -3 -3 -3 -3 -3 -3 -3 -3 -3 -2 -2 -2 -2 -2 -2 -1
-1 -1 -1 -1 -1 -1 -1 -1 -1 -2 -2 -2 -2 -2 -2 -2 -2 -2 -2 -2 -2 -2 -3 -3 -3 -3 -3 -3 -3 -3 -3 -3 -3 -3 -2 -2 -2 -2
-2 -2 -1 -1 -2 -1 -1 -2 -2 -2 -2 -2 -2 -2 -2 -2 -2 -2 -3 -3 -3 -3 -3 -3 -3 -3 -3 -3 -3 -3 -3 -3 -3 -3 -3 -2 -2 -2
-2 -2 -2 -2 -2 -2 -2 -2 -2 -2 -2 -2 -3 -3 -3 -3 -3 -3 -3 -3 -3 -3 -3 -3 -3 -3 -3 -3 -3 -3 -3 -3 -3 -3 -3 -3 -2 -2
-3 -3 -3 -3 -3 -3 -3 -3 -3 -3 -3 -3 -3 -3 -3 -3 -3 -3 -3 -3 -3 -3 -3 -4 -4 -4 -4 -4 -4 -3 -4 -3 -3 -3 -3 -3 -3 -3
-3 -3 -3 -3 -3 -3 -3 -3 -3 -3 -3 -3 -3 -3 -3 -3 -3 -3 -3 -4 -4 -4 -4 -4 -4 -4 -5 -5 -4 -4 -4 -4 -3 -3 -3 -3 -3 -2
-4 -4 -4 -4 -4 -3 -4 -3 -3 -3 -3 -3 -4 -4 -4 -4 -4 -4 -4 -4 -4 -4 -4 -4 -4 -4 -4 -4 -4 -4 -3 -3 -4 -4 -3 -3 -3 -3
-4 -4 -4 -4 -4 -4 -4 -4 -4 -4 -4 -4 -4 -4 -4 -4 -4 -4 -4 -4 -4 -4 -4 -4 -4 -4 -4 -4 -4 -4 -4 -3 -3 -3 -3 -3 -4 -4
-4 -4 -4 -4 -4 -4 -4 -4 -4 -4 -4 -4 -4 -4 -4 -4 -4 -4 -4 -4 -4 -4 -4 -4 -4 -4 -4 -4 -4 -4 -4 -4 -4 -3 -3 -3 -4 -4
Wind_Speed
2 1 1 1 1 1 1 2 2 6 8 5 4 5 10 12 15 15 15 19 20 20 20 20 20 20 19 19 19 20 20 21 21 21 21 21 21 21
1 1 1 1 1 2 2 2 3 4 6 6 6 7 10 12 16 15 15 19 19 19 20 20 20 19 19 18 19 19 20 20 20 21 21 21 21 21
1 1 2 2 2 2 2 2 3 3 7 8 6 7 8 9 12 13 14 13 14 18 20 19 19 19 18 18 18 19 19 19 20 20 21 21 21 21
2 2 2 2 2 3 3 3 4 4 5 9 8 7 8 9 10 10 12 13 13 17 19 19 19 18 18 18 18 18 18 19 19 20 20 21 21 20
2 3 3 2 3 3 4 4 4 4 5 6 8 7 7 7 8 9 10 9 12 14 17 17 17 18 18 18 17 17 18 18 19 19 20 20 20 20
2 3 3 3 4 4 4 4 4 5 5 6 7 7 7 7 6 8 10 8 9 11 13 15 17 17 17 17 17 17 18 18 18 19 19 19 19 19
2 3 3 4 5 5 4 4 4 4 5 6 7 7 7 8 8 7 9 10 9 6 7 9 10 10 12 15 16 16 17 17 18 18 19 19 19 18
3 3 4 4 6 7 8 7 6 5 5 5 6 7 9 8 7 7 8 9 8 5 7 10 7 7 9 10 15 16 16 17 18 18 18 18 18 17
3 3 3 4 5 5 7 8 7 8 7 5 6 7 8 8 8 8 8 8 9 8 8 8 6 7 9 12 16 16 16 17 18 18 18 17 17 17
3 3 3 4 5 5 4 5 5 5 7 5 5 7 7 7 6 7 8 9 8 6 4 5 6 7 9 9 14 16 17 17 17 17 17 17 17 16
2 3 3 4 7 7 4 5 6 6 7 8 9 9 10 11 9 5 6 7 8 6 3 4 5 7 6 5 10 16 17 18 19 18 18 18 17 16
2 3 5 6 8 7 3 4 6 6 6 7 7 8 8 8 9 5 4 6 6 5 3 4 5 6 5 4 5 10 12 15 18 18 18 18 18 11
2 3 4 7 8 7 5 4 7 6 4 5 5 5 5 5 6 6 4 4 5 5 5 5 5 5 4 6 6 6 8 9 11 12 15 18 17 13
2 3 4 7 7 7 6 7 8 6 3 4 4 5 5 6 6 7 7 7 6 7 8 6 4 5 6 7 6 6 7 9 8 8 10 14 14 15
2 5 6 6 6 5 7 8 6 4 3 4 5 5 5 6 6 6 7 7 7 7 7 7 5 5 5 6 6 6 6 6 7 7 8 8 8 8
3 4 6 5 5 5 6 5 4 4 4 4 5 5 5 5 5 5 5 6 6 6 6 7 6 5 5 6 5 6 6 5 7 8 7 7 7 7
3 2 3 3 4 4 4 4 4 4 5 4 5 5 5 5 6 5 5 5 5 6 7 6 7 6 5 5 5 6 6 6 6 7 7 7 6 7
3 2 2 3 3 4 5 5 5 5 5 5 5 5 5 5 6 5 5 5 6 6 6 6 6 6 4 3 3 4 5 6 6 7 6 6 7 7
2 2 2 3 3 4 4 4 5 5 5 5 5 5 5 5 5 5 6 6 6 6 6 5 6 5 7 8 5 5 5 7 7 6 5 4 6 7
2 2 2 3 3 3 4 4 5 5 5 5 5 5 5 5 5 6 6 6 6 6 6 5 5 5 5 5 5 6 9 6 5 6 6 5 5 7
2 2 2 3 3 3 4 4 4 5 5 5 5 5 5 5 5 5 6 8 6 5 6 6 6 8 5 3 4 5 6 9 7 5 5 5 5 6
2 3 3 3 3 3 4 4 5 4 5 5 5 5 5 5 5 6 6 6 5 5 6 6 6 5 4 4 5 6 6 7 9 10 9 6 3 4
3 3 3 3 3 3 3 4 5 5 4 5 5 5 5 5 5 5 5 5 5 5 6 6 5 4 4 4 5 5 7 7 6 7 7 11 10 7
Wind_Direction
194 202 232 258 271 269 263 263 283 308 308 298 304 309 320 322 323 324 322 321 324 325 325 323 323 323 322 322 322 322 322 322 322 320 320 320 319 319
194 198 244 267 282 278 268 272 259 268 288 293 296 305 313 318 320 323 320 323 323 324 325 323 323 322 322 322 322 322 322 322 323 322 321 321 320 320
219 218 254 261 272 279 277 274 268 266 283 297 297 304 306 313 320 322 323 322 322 323 326 325 325 323 323 322 323 323 323 323 324 323 323 323 323 323
235 237 260 276 276 280 273 272 273 269 278 296 305 310 309 313 315 318 324 324 321 322 327 326 327 327 325 325 325 325 325 325 324 325 325 325 324 323
231 242 255 259 273 277 277 277 282 289 285 292 304 308 309 317 321 320 318 318 323 324 326 326 328 327 327 326 326 326 326 326 326 326 326 325 324 322
240 249 259 253 261 271 278 278 289 295 298 301 306 311 312 318 325 327 327 326 323 323 325 325 325 326 327 327 326 327 327 327 327 327 326 325 324 323
263 265 273 289 290 288 290 288 291 295 306 308 310 316 318 328 329 326 323 321 317 314 322 321 320 320 322 322 324 326 328 329 329 327 327 326 325 324
269 283 291 288 299 305 303 300 299 301 302 301 305 311 310 315 317 320 322 327 323 326 326 314 317 314 318 319 323 327 329 330 330 329 328 327 327 328
261 280 298 304 310 296 302 309 307 307 301 297 297 299 305 310 315 317 317 314 305 310 317 308 313 310 316 321 329 333 332 332 333 334 333 332 332 332
258 259 275 289 297 305 306 312 307 302 301 300 287 293 298 303 301 301 302 305 299 299 305 300 313 313 316 316 329 339 339 338 338 337 337 337 337 336
274 281 292 287 301 320 321 313 314 314 318 315 312 312 315 318 322 324 326 325 319 315 311 307 310 315 311 307 325 337 340 342 342 341 342 344 343 339
305 305 308 312 316 327 321 310 311 314 323 328 325 323 321 320 326 325 313 315 315 313 321 324 316 328 320 309 321 331 334 338 340 341 344 346 347 347
309 313 311 321 326 328 326 306 307 320 322 319 319 321 327 327 324 322 311 296 299 294 307 319 313 317 304 308 315 323 333 334 335 337 344 347 348 349
308 308 315 326 333 333 332 330 336 339 329 326 327 328 328 325 320 319 314 307 290 285 295 301 298 307 310 310 312 323 329 330 335 339 342 345 346 348
321 327 331 337 344 341 341 347 351 344 334 330 325 320 318 314 317 320 323 323 316 306 302 302 296 301 303 305 311 319 323 327 337 343 344 344 342 344
345 342 346 349 352 349 350 349 346 338 335 322 320 318 319 320 321 323 325 331 330 326 323 319 311 308 312 304 308 316 323 323 332 335 337 340 342 348
354 359 356 349 352 350 347 347 345 343 342 334 328 326 326 326 326 330 328 331 332 330 332 333 331 317 301 307 314 321 326 327 329 335 338 344 345 348
15 0 348 346 347 344 343 342 341 340 337 332 327 326 326 326 328 331 332 333 332 331 331 332 337 340 339 335 305 314 329 328 331 335 338 344 347 350
21 354 341 338 336 334 333 332 331 328 327 326 328 329 331 330 330 332 333 333 333 333 334 336 341 348 352 348 336 341 334 331 336 341 344 339 338 340
356 338 333 329 326 326 327 328 328 329 331 329 329 329 331 331 333 333 331 331 331 332 336 340 344 344 338 325 320 327 337 335 339 345 343 334 333 336
339 336 328 321 319 320 322 324 323 321 324 325 325 326 328 330 331 331 330 331 334 334 339 339 330 327 315 317 330 342 346 355 1 350 338 338 342 356
332 327 321 315 315 316 320 324 323 321 323 323 323 325 327 327 328 328 330 333 335 334 333 331 333 342 352 353 345 340 344 350 1 8 12 13 0 2
323 317 314 313 315 317 320 322 319 316 318 319 321 323 325 326 326 324 326 331 337 340 342 341 345 349 347 342 343 345 350 355 0 10 12 13 21 21
Height
1527 1527 1526 1525 1524 1523 1521 1519 1516 1510 1505 1503 1501 1498 1495 1491 1487 1483 1478 1474 1469 1464 1460 1456 1452 1448 1444 1441 1437 1434 1430 1427 1423 1420 1417 1414 1410 1407
1524 1524 1523 1522 1521 1519 1518 1516 1514 1511 1505 1501 1498 1495 1492 1488 1484 1480 1475 1470 1465 1461 1456 1451 1447 1443 1440 1436 1432 1429 1426 1422 1419 1415 1412 1409 1406 1402
1521 1520 1520 1519 1517 1516 1514 1513 1511 1508 1503 1498 1496 1492 1489 1484 1480 1476 1471 1466 1461 1457 1452 1447 1443 1439 1435 1432 1428 1424 1421 1418 1414 1411 1407 1404 1401 1398
1517 1517 1516 1515 1514 1512 1511 1509 1507 1504 1500 1495 1491 1488 1485 1481 1476 1472 1467 1462 1458 1453 1448 1443 1439 1435 1431 1428 1424 1420 1417 1413 1410 1406 1403 1399 1396 1393
1514 1514 1512 1511 1510 1509 1507 1505 1503 1500 1497 1493 1488 1485 1481 1477 1472 1468 1463 1459 1454 1449 1445 1440 1436 1432 1428 1424 1420 1416 1413 1409 1406 1402 1399 1395 1392 1388
1511 1510 1509 1508 1506 1505 1503 1501 1499 1496 1493 1490 1485 1481 1478 1474 1469 1464 1458 1454 1450 1446 1441 1437 1433 1429 1424 1420 1416 1412 1409 1405 1402 1398 1395 1391 1388 1384
1507 1506 1505 1504 1503 1502 1500 1498 1495 1492 1489 1486 1482 1478 1474 1470 1466 1461 1456 1451 1446 1443 1438 1434 1429 1425 1421 1416 1412 1408 1405 1401 1398 1394 1391 1387 1384 1381
1503 1502 1502 1501 1499 1498 1496 1494 1492 1489 1486 1483 1479 1475 1471 1468 1463 1459 1455 1449 1443 1440 1435 1430 1427 1422 1417 1413 1409 1405 1402 1398 1394 1391 1387 1384 1380 1377
1499 1499 1498 1497 1495 1494 1492 1490 1488 1486 1483 1480 1476 1473 1469 1465 1461 1457 1453 1448 1443 1439 1433 1427 1424 1419 1415 1411 1407 1403 1399 1395 1391 1388 1384 1381 1377 1374
1496 1495 1494 1493 1491 1490 1488 1486 1484 1482 1479 1476 1473 1470 1467 1463 1460 1456 1451 1446 1442 1438 1433 1426 1421 1417 1413 1409 1405 1401 1397 1393 1389 1385 1382 1378 1375 1371
1493 1492 1491 1489 1488 1487 1485 1482 1480 1478 1476 1473 1470 1467 1464 1461 1457 1453 1448 1443 1438 1434 1431 1426 1420 1415 1410 1407 1404 1400 1396 1392 1388 1383 1380 1376 1372 1369
1489 1488 1487 1486 1485 1483 1481 1478 1475 1473 1471 1469 1466 1464 1461 1458 1455 1451 1447 1442 1437 1432 1429 1425 1420 1415 1408 1405 1402 1399 1394 1390 1386 1382 1378 1375 1371 1367
1485 1484 1483 1483 1481 1479 1477 1475 1473 1470 1468 1465 1462 1460 1457 1455 1452 1449 1445 1441 1437 1433 1429 1425 1420 1415 1411 1405 1400 1398 1394 1389 1385 1381 1377 1374 1371 1367
1482 1481 1480 1479 1478 1476 1474 1472 1470 1467 1465 1462 1459 1456 1454 1451 1449 1446 1443 1440 1436 1432 1428 1424 1419 1415 1410 1405 1400 1396 1393 1389 1385 1381 1377 1374 1370 1367
1480 1479 1478 1477 1475 1473 1471 1469 1467 1464 1461 1459 1456 1454 1452 1449 1447 1444 1440 1437 1434 1430 1427 1423 1419 1415 1411 1406 1401 1396 1392 1388 1385 1381 1377 1373 1370 1366
1477 1476 1476 1474 1473 1471 1469 1466 1464 1462 1459 1457 1454 1452 1450 1447 1444 1441 1438 1434 1431 1428 1425 1422 1418 1414 1410 1406 1402 1397 1393 1389 1385 1381 1377 1374 1370 1367
1474 1473 1472 1471 1469 1467 1466 1464 1462 1459 1457 1455 1453 1450 1448 1445 1442 1439 1436 1433 1430 1426 1422 1420 1417 1413 1409 1405 1401 1397 1393 1389 1385 1382 1377 1374 1371 1368
1472 1471 1470 1468 1467 1465 1463 1461 1459 1457 1455 1453 1451 1449 1446 1443 1440 1438 1435 1432 1429 1426 1422 1418 1415 1411 1407 1404 1402 1397 1393 1390 1386 1383 1379 1374 1371 1368
1470 1468 1468 1466 1465 1464 1462 1460 1458 1456 1454 1452 1449 1447 1444 1442 1439 1436 1434 1431 1428 1425 1422 1419 1415 1411 1407 1403 1401 1399 1395 1390 1387 1383 1380 1376 1373 1370
1467 1466 1466 1465 1463 1462 1460 1459 1456 1454 1452 1450 1448 1446 1443 1441 1438 1436 1433 1430 1427 1424 1421 1418 1416 1413 1409 1407 1402 1399 1396 1392 1388 1385 1381 1378 1376 1373
1465 1464 1464 1463 1461 1460 1459 1457 1455 1453 1451 1449 1447 1445 1442 1440 1437 1435 1432 1430 1427 1424 1421 1418 1416 1414 1411 1408 1404 1400 1397 1395 1391 1388 1384 1380 1377 1374
1463 1463 1462 1461 1460 1458 1457 1455 1453 1451 1449 1447 1445 1444 1441 1439 1437 1434 1432 1429 1427 1424 1422 1419 1417 1414 1412 1408 1405 1402 1399 1396 1393 1390 1387 1384 1381 1378
1462 1461 1460 1459 1458 1457 1455 1453 1452 1450 1448 1446 1444 1442 1440 1438 1436 1434 1432 1430 1427 1425 1422 1420 1418 1415 1413 1410 1407 1404 1401 1398 1395 1392 1389 1387 1385 1382